Regional Weather Roundup
Issued by NWS

Home | Current Version | Previous Version | Graphics & Text | Print | Product List | Glossary On
Versions: 1 2 3 4 5 6 7 8 9 10 11 12 13 14 15 16 17 18 19 20 21 22 23 24 25 26 27 28 29 30 31 32 33 34 35 36 37 38 39 40 41 42 43 44 45 46 47 48 49 50
000
ASUS44 KMEG 291500
RWRTN
TENNESSEE HOURLY STATE WEATHER ROUNDUP
NATIONAL WEATHER SERVICE MEMPHIS TN
1000 AM CDT SUN MAR 29 2015

TNZ002-004-019-021-049-052-054-088>092-291600-
WEST TENNESSEE

CITY           SKY/WX    TMP DP  RH WIND       PRES   REMARKS
MEMPHIS INTL   CLOUDY    47  26  44 S12       30.25S
NWS MEMPHIS      N/A     46 N/A N/A MISG        N/A
JACKSON        SUNNY     48  18  30 S18G24    30.27F
DYERSBURG      SUNNY     48  19  32 SE15      30.27S
UNION CITY     SUNNY     45  25  45 SE15      30.24F
PARIS          SUNNY     43  16  33 SE15      30.27F
LEXINGTON      SUNNY     46  16  29 S14       30.28F
SAVANNAH       MOSUNNY   46  18  31 S14       30.31S
$$

TNZ008-025-027-028-033-062-065-066-291600-
NORTH MIDDLE TENNESSEE

CITY           SKY/WX    TMP DP  RH WIND       PRES   REMARKS
NASHVILLE      MOSUNNY   45  15  30 S17       30.34F
CLARKSVILLE    SUNNY     43  19  38 S14G20    30.32S
COOKEVILLE     SUNNY     43  21  42 S8        30.34S
CROSSVILLE     SUNNY     40  10  29 S9        30.34R WCI  34
$$

TNZ061-075-076-078-094-096-097-291600-
SOUTH MIDDLE TENNESSEE

CITY           SKY/WX    TMP DP  RH WIND       PRES   REMARKS
FAYETTEVILLE   SUNNY     43  16  33 S12       30.34F
TULLAHOMA      SUNNY     43  14  31 S8        30.35S
COLUMBIA       SUNNY     45  19  36 S14       30.32S
SHELBYVILLE    SUNNY     45  19  36 S10       30.36S
$$

TNZ017-018-042-046-047-291600-
NORTHEAST TENNESSEE

CITY           SKY/WX    TMP DP  RH WIND       PRES   REMARKS
TRI CITIES     SUNNY     36   9  32 VRB5      30.38F WCI  32
ELIZABETHTON   SUNNY     37   7  28 SW3       30.37S
$$

TNZ012-013-036-069-073-074-291600-
CENTRAL EAST TENNESSEE

CITY           SKY/WX    TMP DP  RH WIND       PRES   REMARKS
KNOXVILLE      MOSUNNY   40  19  43 VRB3      30.39R
OAK RIDGE      SUNNY     40  15  36 CALM      30.40S
GATLINBURG     SUNNY     37  18  44 CALM      30.38S
$$

TNZ083-085-099-291600-
SOUTHEAST TENNESSEE

CITY           SKY/WX    TMP DP  RH WIND       PRES   REMARKS
CHATTANOOGA    SUNNY     42  18  37 CALM      30.41S
$$

SKY/WX REPORTED AS FAIR MEANS FEW OR NO CLOUDS BELOW
12 THOUSAND FEET.



USA.gov is the U.S. government's official web portal to all federal, state and local government web resources and services.